Location: Bel Air
(34.0833°N, 118.4487°W)
Time: 12:09:33
(UTC+00:00)

Daily predictions for brighter satellites

Satellite Brightness Start Highest point End
(mag) Time Altitude Azimuth Time Altitude Azimuth Time Altitude Azimuth
COSMOS 2428 3.5 12:00:02 10° NW 12:04:56 30° WSW 12:09:48 10° SSW
Delta 2 Rocket 4.3 12:03:01 10° W 12:07:16 37° SSW 12:11:57 10° SE
CZ-4C R/B 4.4 12:04:36 10° SSE 12:08:49 55° ENE 12:13:06 10° N
Cosmos 2219 3.4 12:08:05 10° SW 12:13:39 58° WNW 12:19:12 10° NNE
Cosmos 1544 3.0 12:10:59 10° S 12:14:28 86° E 12:17:59 10° N
OAO 3 Rocket 3.3 12:09:58 10° W 12:14:55 88° N 12:19:49 10° E
ISS -1.2 12:14:43 10° WNW 12:16:21 13° NNW 12:17:58 10° N
Cosmos 44 Rocket 3.5 12:14:30 10° SSW 12:19:23 73° ESE 12:24:11 10° NNE
Sich 1 3.0 12:15:44 10° SSW 12:20:04 70° W 12:24:22 10° N
Meteor 1-19 Rocket 4.5 12:17:18 10° NNW 12:23:14 61° W 12:29:07 10° S
